When you browse on this site, cookies collect data to enhance your experience and personalize the content and advertising you see.
Visit our Privacy Policy to learn more. By continuing to use the site, you agree to this use of cookies and data.
  • In Hungary
  • List of Countries
  • For 7 days
  • Water Temperature
  • Satellite Maps
  • Weather Map
  • News
  • Weather Widgets
  • user-avatar
    Login

    Hourly Weather Orikhove

    Today, 21 July, Sunday

    Time Temperature Precipitation Wind Pressure Humidity
    00:00 +18°C° 0 mm 1 mps 750 mmHg 83%
    01:00 +18°C° 0 mm 1 mps 751 mmHg 84%
    02:00 +18°C° 0 mm 1 mps 751 mmHg 84%
    03:00 +18°C° 0 mm 1 mps 751 mmHg 84%
    04:00 +18°C° 0 mm 1 mps 751 mmHg 84%
    05:00 +18°C° 0 mm 1 mps 751 mmHg 84%
    06:00 +20°C° 0 mm 1 mps 751 mmHg 80%
    07:00 +22°C° 0 mm 1 mps 751 mmHg 75%
    08:00 +23°C° 0 mm 1 mps 751 mmHg 70%
    09:00 +24°C° 0.6 mm 1 mps 751 mmHg 64%
    10:00 +26°C° 0.6 mm 1 mps 751 mmHg 58%
    11:00 +27°C° 0.6 mm 1 mps 751 mmHg 52%
    12:00 +27°C° 0.1 mm 1 mps 751 mmHg 52%
    13:00 +28°C° 0.1 mm 2 mps 751 mmHg 51%
    14:00 +28°C° 0.1 mm 2 mps 750 mmHg 50%
    15:00 +28°C° 0.1 mm 2 mps 750 mmHg 53%
    16:00 +27°C° 0.1 mm 2 mps 750 mmHg 56%
    17:00 +27°C° 0.1 mm 2 mps 750 mmHg 59%
    18:00 +25°C° 0.1 mm 1 mps 750 mmHg 65%
    19:00 +23°C° 0.1 mm 1 mps 750 mmHg 71%
    20:00 +21°C° 0.1 mm 1 mps 750 mmHg 77%
    21:00 +21°C° 0 mm 1 mps 750 mmHg 79%
    22:00 +20°C° 0 mm 1 mps 750 mmHg 82%
    23:00 +19°C° 0 mm 1 mps 750 mmHg 84%

    Tomorrow, 22 July, Monday

    Time Temperature Precipitation Wind Pressure Humidity
    00:00 +19°C° 0 mm 1 mps 750 mmHg 85%
    01:00 +18°C° 0 mm 1 mps 750 mmHg 87%
    02:00 +18°C° 0 mm 1 mps 750 mmHg 88%
    03:00 +18°C° 0 mm 1 mps 750 mmHg 88%
    04:00 +18°C° 0 mm 1 mps 750 mmHg 87%
    05:00 +18°C° 0 mm 1 mps 750 mmHg 87%
    06:00 +19°C° 0 mm 2 mps 749 mmHg 82%
    07:00 +21°C° 0 mm 2 mps 749 mmHg 77%
    08:00 +24°C° 0 mm 2 mps 749 mmHg 71%
    09:00 +25°C° 0.6 mm 3 mps 749 mmHg 69%
    10:00 +26°C° 0.6 mm 3 mps 749 mmHg 67%
    11:00 +27°C° 0.6 mm 3 mps 748 mmHg 64%
    12:00 +26°C° 0.9 mm 3 mps 748 mmHg 67%
    13:00 +26°C° 0.9 mm 3 mps 748 mmHg 69%
    14:00 +26°C° 0.9 mm 4 mps 748 mmHg 72%
    15:00 +24°C° 1.2 mm 3 mps 747 mmHg 80%
    16:00 +21°C° 1.2 mm 2 mps 747 mmHg 88%
    17:00 +21°C° 1.2 mm 1 mps 747 mmHg 96%
    18:00 +20°C° 0.3 mm 1 mps 747 mmHg 95%
    19:00 +20°C° 0.3 mm 1 mps 747 mmHg 95%
    20:00 +18°C° 0.3 mm 0 mps 746 mmHg 95%
    21:00 +19°C° 0.1 mm 1 mps 746 mmHg 96%
    22:00 +19°C° 0.1 mm 1 mps 746 mmHg 96%
    23:00 +17°C° 0.1 mm 2 mps 746 mmHg 97%

    Day after tomorrow, 23 July, Tuesday

    Time Temperature Precipitation Wind Pressure Humidity
    00:00 +17°C° 0 mm 2 mps 746 mmHg 97%
    01:00 +16°C° 0 mm 2 mps 746 mmHg 97%
    02:00 +16°C° 0 mm 2 mps 745 mmHg 97%
    03:00 +16°C° 0 mm 2 mps 745 mmHg 97%
    04:00 +16°C° 0 mm 2 mps 745 mmHg 98%
    05:00 +16°C° 0 mm 2 mps 745 mmHg 98%
    06:00 +17°C° 0 mm 3 mps 745 mmHg 95%
    07:00 +18°C° 0 mm 3 mps 745 mmHg 92%
    08:00 +19°C° 0 mm 4 mps 745 mmHg 89%
    09:00 +19°C° 0 mm 4 mps 745 mmHg 85%
    10:00 +20°C° 0 mm 4 mps 746 mmHg 82%
    11:00 +21°C° 0 mm 4 mps 746 mmHg 78%
    12:00 +21°C° 0 mm 4 mps 746 mmHg 76%
    13:00 +22°C° 0 mm 4 mps 746 mmHg 74%
    14:00 +22°C° 0 mm 4 mps 746 mmHg 72%
    15:00 +22°C° 0 mm 4 mps 746 mmHg 73%
    16:00 +22°C° 0 mm 4 mps 746 mmHg 73%
    17:00 +22°C° 0 mm 4 mps 746 mmHg 74%
    18:00 +20°C° 0 mm 3 mps 746 mmHg 80%
    19:00 +19°C° 0 mm 3 mps 745 mmHg 87%
    20:00 +17°C° 0 mm 3 mps 745 mmHg 93%
    21:00 +17°C° 0 mm 3 mps 745 mmHg 94%
    22:00 +16°C° 0 mm 2 mps 746 mmHg 96%
    23:00 +15°C° 0 mm 2 mps 746 mmHg 97%

    24 July, Wednesday

    Time Temperature Precipitation Wind Pressure Humidity
    00:00 +15°C° 0 mm 2 mps 746 mmHg 97%
    01:00 +15°C° 0 mm 2 mps 746 mmHg 97%
    02:00 +15°C° 0 mm 2 mps 746 mmHg 97%
    03:00 +16°C° 0 mm 2 mps 746 mmHg 96%
    04:00 +16°C° 0 mm 2 mps 746 mmHg 96%
    05:00 +16°C° 0 mm 3 mps 746 mmHg 95%
    06:00 +17°C° 0 mm 3 mps 746 mmHg 94%
    07:00 +18°C° 0 mm 3 mps 746 mmHg 92%
    08:00 +19°C° 0 mm 3 mps 746 mmHg 90%
    09:00 +19°C° 0.2 mm 4 mps 746 mmHg 87%
    10:00 +20°C° 0.2 mm 4 mps 746 mmHg 84%
    11:00 +21°C° 0.2 mm 5 mps 746 mmHg 81%
    12:00 +21°C° 0.2 mm 5 mps 746 mmHg 79%
    13:00 +22°C° 0.2 mm 6 mps 746 mmHg 78%
    14:00 +22°C° 0.2 mm 6 mps 746 mmHg 76%
    15:00 +22°C° 0.3 mm 6 mps 746 mmHg 77%
    16:00 +22°C° 0.3 mm 6 mps 746 mmHg 77%
    17:00 +22°C° 0.3 mm 5 mps 746 mmHg 78%
    18:00 +21°C° 0.1 mm 5 mps 746 mmHg 82%
    19:00 +20°C° 0.1 mm 5 mps 747 mmHg 86%
    20:00 +19°C° 0.1 mm 4 mps 747 mmHg 90%
    21:00 +18°C° 0 mm 4 mps 747 mmHg 91%
    22:00 +18°C° 0 mm 4 mps 747 mmHg 93%
    23:00 +16°C° 0 mm 5 mps 747 mmHg 94%

    25 July, Thursday

    Time Temperature Precipitation Wind Pressure Humidity
    00:00 +16°C° 0 mm 5 mps 747 mmHg 95%
    01:00 +16°C° 0 mm 5 mps 747 mmHg 95%
    02:00 +17°C° 0 mm 4 mps 747 mmHg 96%
    03:00 +16°C° 0 mm 5 mps 747 mmHg 95%
    04:00 +16°C° 0 mm 5 mps 747 mmHg 95%
    05:00 +16°C° 0 mm 5 mps 747 mmHg 94%
    06:00 +17°C° 0 mm 5 mps 748 mmHg 90%
    07:00 +19°C° 0 mm 5 mps 748 mmHg 87%
    08:00 +20°C° 0 mm 6 mps 748 mmHg 83%
    09:00 +21°C° 0 mm 6 mps 748 mmHg 78%
    10:00 +22°C° 0 mm 6 mps 748 mmHg 74%
    11:00 +23°C° 0 mm 7 mps 748 mmHg 69%
    12:00 +23°C° 0.3 mm 6 mps 748 mmHg 73%
    13:00 +22°C° 0.3 mm 6 mps 748 mmHg 77%
    14:00 +21°C° 0.3 mm 6 mps 748 mmHg 81%
    15:00 +21°C° 0.2 mm 5 mps 748 mmHg 82%
    16:00 +21°C° 0.2 mm 5 mps 748 mmHg 83%
    17:00 +21°C° 0.2 mm 5 mps 748 mmHg 84%
    18:00 +20°C° 0 mm 4 mps 748 mmHg 86%
    19:00 +19°C° 0 mm 4 mps 749 mmHg 89%
    20:00 +18°C° 0 mm 3 mps 749 mmHg 91%
    21:00 +18°C° 0 mm 3 mps 749 mmHg 92%
    22:00 +18°C° 0 mm 3 mps 749 mmHg 92%
    23:00 +18°C° 0 mm 3 mps 749 mmHg 93%

    26 July, Friday

    Time Temperature Precipitation Wind Pressure Humidity
    00:00 +18°C° 0 mm 3 mps 749 mmHg 94%
    01:00 +17°C° 0 mm 3 mps 749 mmHg 95%
    02:00 +16°C° 0 mm 3 mps 749 mmHg 96%
    03:00 +16°C° 0 mm 3 mps 749 mmHg 95%
    04:00 +16°C° 0 mm 3 mps 749 mmHg 95%
    05:00 +16°C° 0 mm 3 mps 749 mmHg 94%
    06:00 +18°C° 0 mm 4 mps 749 mmHg 89%
    07:00 +19°C° 0 mm 4 mps 749 mmHg 84%
    08:00 +21°C° 0 mm 4 mps 749 mmHg 78%
    09:00 +22°C° 0.4 mm 5 mps 749 mmHg 75%
    10:00 +23°C° 0.4 mm 5 mps 749 mmHg 73%
    11:00 +25°C° 0.4 mm 5 mps 749 mmHg 70%
    12:00 +25°C° 0.3 mm 5 mps 749 mmHg 67%
    13:00 +26°C° 0.3 mm 5 mps 748 mmHg 64%
    14:00 +27°C° 0.3 mm 5 mps 748 mmHg 60%
    15:00 +27°C° 0 mm 4 mps 748 mmHg 61%
    16:00 +26°C° 0 mm 4 mps 748 mmHg 63%
    17:00 +26°C° 0 mm 4 mps 747 mmHg 64%
    18:00 +25°C° 0 mm 4 mps 747 mmHg 69%
    19:00 +22°C° 0 mm 4 mps 748 mmHg 75%
    20:00 +21°C° 0 mm 4 mps 748 mmHg 81%
    21:00 +20°C° 0 mm 3 mps 748 mmHg 84%
    22:00 +19°C° 0 mm 3 mps 748 mmHg 88%
    23:00 +18°C° 0 mm 3 mps 748 mmHg 91%
    Show more